Location: Ernsee
(50.8780°N, 12.0389°E)
Time: 20:32:44
(UTC+00:00)

NOSS 3-2 (C) - Pass Details

Date: 20 January 2020
Orbit: 813 x 1399 km, 63.4° (Epoch: 10 February)

Event Time Altitude Azimuth Distance (km) Brightness Sun altitude
Exits shadow 03:53:11 40° 337° (NNW) 1,668 4.5 -29.6°
Maximum altitude 03:55:52 62° 38° (NE) 1,367 4.3 -29.2°
Drops below altitude 10° 04:03:59 10° 118° (ESE) 3,365 7.0 -27.9°
Sets 04:07:02 0° 122° (ESE) 4,386 7.7 -27.4°
